SCP
0 0 0 0 0 0 0 0 0 0 0 0 0 0 0 0 0 0 0 0 0 0 0 0 0 0 0 0 0 0 0 0 0 1 2 3 2 1 0 0 0 0 0 0
0 0 0 0 0 0 0 0 0 0 0 0 0 0 0 0 0 0 0 0 0 0 0 0 0 0 0 0 0 0 0 0 0 1 2 2 2 1 0 0 0 0 0 0
0 0 0 0 0 0 0 0 0 0 0 0 0 0 0 0 0 0 0 0 0 0 0 0 0 0 0 0 0 0 0 0 0 0 1 1 1 0 0 0 0 0 0 0
0 0 0 0 0 0 0 0 0 0 0 0 0 0 0 0 0 0 0 0 0 0 0 0 0 0 0 0 0 0 0 0 0 0 1 1 1 0 0 0 0 0 0 0
0 0 0 0 0 0 0 0 0 0 0 0 0 0 0 0 0 0 0 0 0 0 0 0 0 0 0 0 0 0 0 0 0 1 1 1 0 0 0 0 0 0 0 0
0 0 0 0 0 0 0 0 0 0 0 0 0 0 0 0 0 0 0 0 0 0 0 0 0 0 0 0 0 0 0 0 0 0 0 0 0 0 0 0 0 0 0 0
0 0 0 0 0 0 0 0 0 0 0 0 0 0 0 0 0 0 0 0 0 0 0 0 0 0 0 0 0 0 0 0 0 0 0 0 0 0 0 0 0 0 0 0
0 0 0 0 0 0 0 0 0 0 0 0 0 0 0 0 0 0 0 0 0 0 0 0 0 0 0 0 0 0 0 0 0 0 0 0 0 0 0 0 0 0 0 0
0 0 0 0 0 0 0 0 0 0 0 0 0 0 0 0 0 0 0 0 0 0 0 0 0 0 0 0 0 0 0 0 0 0 0 0 0 0 0 0 0 0 0 0
0 0 0 0 0 0 0 0 0 0 0 0 0 0 0 0 0 0 0 0 0 0 0 0 0 0 0 0 0 0 0 0 0 0 0 0 0 0 0 0 0 0 0 1
0 0 0 0 0 0 0 0 0 0 0 0 0 0 0 0 0 0 0 0 0 0 0 0 0 0 0 0 0 0 0 0 0 0 0 0 0 0 0 0 0 0 0 0
0 0 0 0 0 0 0 0 0 0 0 0 0 0 0 0 0 0 0 0 0 0 0 0 0 0 0 0 0 0 0 0 0 0 0 0 0 0 0 0 0 0 0 0
0 0 0 0 0 0 0 0 0 0 0 0 0 0 0 0 0 0 0 0 0 0 0 0 0 0 0 0 0 0 0 0 0 0 0 0 0 0 0 0 0 0 0 0
0 0 0 0 0 0 0 0 0 0 0 0 0 0 0 0 0 0 0 0 0 0 0 0 0 0 0 0 0 0 0 0 1 1 1 0 0 0 0 0 0 0 0 0
0 0 0 0 0 0 0 0 0 0 0 0 0 0 0 0 0 0 0 0 0 0 0 0 0 0 0 0 0 0 0 1 1 1 1 1 1 1 1 0 0 0 0 0
0 0 0 0 0 0 0 0 0 0 0 0 0 0 0 0 0 0 0 0 0 0 0 0 0 0 0 0 0 0 0 1 1 1 1 1 1 1 1 1 1 0 0 0
0 0 0 0 0 0 0 0 0 0 0 0 0 0 0 0 0 0 0 0 0 0 0 0 0 0 0 0 0 0 0 0 1 1 1 1 1 1 1 1 1 1 1 1
0 0 0 0 0 0 0 0 0 0 0 0 0 0 0 0 0 0 0 0 0 0 0 0 0 0 0 0 0 0 0 0 0 0 0 0 1 1 1 1 1 1 1 1
0 0 0 0 0 0 0 0 0 0 0 0 0 0 0 0 0 0 0 0 0 0 0 0 0 0 0 0 0 0 0 0 0 0 0 0 0 0 1 1 1 1 1 1
0 0 0 0 0 0 0 0 0 0 0 0 0 0 0 0 0 0 0 0 0 0 0 0 0 0 0 0 0 0 0 0 0 0 0 0 0 0 0 0 0 1 1 1
0 0 0 0 0 0 0 0 0 0 0 0 0 0 0 0 0 0 0 0 0 0 0 0 0 0 0 0 0 0 0 0 0 0 0 0 0 0 0 0 0 0 0 0
0 0 0 0 0 0 0 0 0 0 0 0 0 0 0 0 0 0 0 0 0 0 0 0 0 0 0 0 0 0 0 0 0 0 0 0 0 0 0 0 0 0 0 0
0 0 0 0 0 0 0 0 0 0 0 0 0 0 0 0 0 0 0 0 0 0 0 0 0 0 0 0 0 0 0 0 0 0 0 0 0 0 0 0 0 0 0 0
0 0 0 0 0 0 0 0 0 0 0 0 0 0 0 0 0 0 0 0 0 0 0 0 0 0 0 0 0 0 0 0 0 0 0 0 0 0 0 0 0 0 0 0
0 0 0 0 0 0 0 0 0 0 0 0 0 0 0 0 0 0 0 0 0 0 0 0 0 0 0 0 0 0 0 0 0 0 0 0 0 0 0 0 0 0 0 0
0 0 0 0 0 0 0 0 0 0 0 0 0 0 0 0 0 0 0 0 0 0 0 0 0 0 0 0 0 0 0 0 0 0 0 0 0 0 0 0 0 0 0 0
Wind_Speed
1 3 2 2 2 1 3 5 8 7 4 8 13 18 18 13 10 10 9 8 7 7 7 7 8 8 8 9 9 9 10 10 8 7 6 6 6 6 6 7 9 9 9 9
4 4 2 2 3 4 5 7 8 7 3 8 13 19 15 9 8 8 8 7 7 7 7 7 8 8 9 10 10 10 10 10 10 8 7 6 7 7 7 7 9 10 10 9
4 2 3 4 4 5 7 7 8 9 11 6 10 12 6 3 5 6 7 6 6 7 8 8 8 8 9 10 10 9 11 11 11 10 7 6 6 6 7 8 8 9 10 10
3 2 4 5 5 5 5 3 7 9 8 5 4 9 5 3 6 6 5 5 6 6 7 8 9 10 10 10 10 11 11 11 11 9 8 8 8 8 9 8 8 9 10 10
3 4 5 6 4 5 3 3 5 6 6 7 5 7 8 3 6 5 4 4 5 5 7 9 9 10 11 10 10 10 11 11 10 9 8 9 9 9 8 9 10 10 9 10
3 2 3 3 1 3 2 2 2 3 4 6 5 7 8 4 5 4 4 4 5 6 7 9 9 10 11 10 9 10 11 11 11 10 9 9 12 11 11 10 10 8 8 9
4 5 3 3 3 4 3 3 3 3 4 5 3 7 11 5 4 5 6 6 6 7 8 9 10 11 11 12 11 11 12 12 12 11 10 10 12 12 12 11 10 9 8 8
4 5 6 5 4 2 3 3 2 5 6 4 4 10 8 4 5 7 8 8 8 8 9 9 10 11 12 12 12 12 12 13 13 12 11 10 12 9 8 10 10 10 9 9
5 3 4 3 1 3 4 4 1 2 4 8 8 8 10 7 8 7 7 8 8 9 10 11 11 12 12 12 13 12 13 13 13 12 12 12 11 11 11 11 11 9 10 9
4 4 3 3 4 1 2 4 4 4 5 8 8 9 6 4 6 6 6 8 9 9 10 12 12 12 12 12 12 13 12 13 13 12 11 10 11 11 11 11 11 11 12 12
5 5 4 5 8 8 7 6 6 4 4 7 9 7 3 5 5 6 8 9 10 11 12 12 13 13 13 13 12 12 12 12 12 12 11 11 11 11 11 11 11 11 12 11
6 5 5 5 2 3 7 8 9 7 7 7 9 11 2 5 7 8 10 11 12 13 13 13 14 14 13 13 13 13 13 12 12 11 11 11 11 11 11 11 11 11 11 11
8 6 5 5 5 5 6 8 8 5 5 9 11 13 1 4 8 10 13 14 14 14 14 14 14 13 13 13 13 13 13 12 11 11 10 11 10 11 11 11 10 11 11 11
7 7 9 10 4 6 8 10 11 11 9 12 18 22 17 15 15 16 15 15 15 15 14 14 14 13 13 13 13 13 13 12 11 11 11 11 11 11 11 11 11 11 10 10
7 8 10 13 11 9 12 13 15 18 18 16 19 21 23 20 18 17 16 15 15 15 15 14 14 14 14 14 13 12 12 11 11 11 11 11 11 11 11 10 10 10 9 9
7 7 6 10 12 13 16 19 19 21 22 24 25 27 22 19 15 14 15 14 14 15 15 15 15 14 14 13 13 13 12 11 11 11 11 11 11 11 11 10 9 9 8 7
7 7 6 8 6 9 16 17 19 17 16 16 21 20 15 15 14 14 13 13 14 14 15 15 14 13 13 13 12 12 12 11 11 11 11 11 11 11 11 10 8 7 7 7
9 7 5 5 5 14 8 3 10 15 16 18 18 17 15 15 14 14 13 13 13 14 14 13 12 12 12 12 12 11 10 10 10 11 10 11 11 11 11 9 7 7 6 7
11 9 6 6 9 14 10 6 8 10 12 14 17 18 16 13 13 12 9 10 12 13 13 12 11 11 12 12 11 10 10 10 10 10 10 11 11 11 10 9 8 7 6 6
8 8 8 7 9 11 5 3 4 4 10 8 10 12 10 8 10 9 8 10 11 12 11 11 10 10 11 11 10 10 10 10 10 11 11 11 11 10 9 9 9 7 6 6
8 9 12 13 12 13 5 6 7 7 6 1 5 8 7 8 10 11 11 11 11 12 11 10 10 10 10 9 9 10 10 11 11 11 11 11 10 9 9 9 7 6 6 6
12 10 11 10 12 13 6 10 10 8 4 4 6 7 8 10 12 12 12 12 11 11 11 10 9 10 9 8 8 10 10 11 11 11 10 10 10 8 7 8 6 6 5 5
12 11 8 11 11 5 8 9 7 5 7 7 8 8 9 11 11 11 11 11 11 10 10 9 9 10 9 8 8 10 10 10 10 10 10 10 10 8 7 7 6 5 4 4
9 6 7 9 13 11 10 12 11 10 10 9 9 9 9 11 11 11 10 10 10 10 9 8 9 10 9 8 8 9 9 9 10 10 10 9 9 8 7 5 5 5 4 4
9 9 9 13 13 11 12 13 13 12 11 10 10 10 10 10 11 10 10 9 9 8 8 7 8 9 9 9 9 9 9 9 10 10 9 9 8 8 7 6 5 5 5 5
9 11 11 12 10 9 9 8 9 10 10 10 10 10 8 8 10 10 9 9 8 8 7 7 8 9 9 9 9 9 8 9 9 9 8 7 7 6 6 6 6 6 6 8
Wind_Direction
135 204 203 188 199 273 268 265 281 288 310 291 276 282 287 288 274 270 274 276 281 289 297 303 303 304 305 304 298 297 296 296 294 288 282 277 276 275 271 268 266 263 254 244
190 211 208 174 188 230 250 266 279 288 294 292 291 287 284 274 262 267 273 274 281 295 299 304 306 306 306 303 300 295 295 295 291 283 280 274 275 272 271 270 266 263 253 244
229 104 150 192 210 242 248 255 282 298 312 271 295 280 243 231 249 260 263 270 281 292 301 307 307 306 306 302 300 297 294 294 289 283 277 276 274 272 272 272 264 260 255 248
227 188 199 224 235 244 267 254 275 290 299 296 327 296 266 247 265 259 263 272 284 296 304 309 308 308 306 304 305 301 296 291 288 280 275 275 277 275 277 275 265 263 254 249
201 192 211 228 239 228 273 313 281 278 268 280 231 259 271 235 257 256 261 280 295 303 309 310 308 307 306 304 304 302 299 297 299 290 281 279 275 272 273 273 270 267 259 249
239 203 236 245 236 218 250 254 215 213 235 254 222 241 272 222 237 255 264 282 298 304 307 308 309 310 310 309 305 303 303 302 304 296 285 278 279 273 272 272 272 269 263 252
213 194 190 201 199 177 220 265 268 245 231 247 155 243 258 260 249 265 277 286 298 305 306 309 314 316 316 315 312 309 306 305 305 297 293 285 277 272 266 268 270 271 268 260
240 212 180 190 217 204 197 238 269 287 288 294 226 246 260 279 272 269 274 284 295 301 305 308 310 312 313 313 312 310 308 306 305 301 297 289 282 275 270 268 267 264 262 261
218 219 125 169 200 204 180 199 339 270 286 275 255 261 278 259 255 260 271 283 293 299 303 307 309 310 310 309 309 309 306 303 301 299 296 289 285 279 275 273 267 263 262 261
207 229 173 154 174 187 275 157 174 215 270 275 270 258 258 244 253 266 277 291 296 299 303 308 308 308 308 306 306 307 305 302 300 298 294 290 288 284 280 273 271 269 267 262
198 216 183 190 208 196 173 185 207 219 255 271 283 272 222 248 272 284 291 299 304 303 303 304 305 306 307 306 306 306 306 303 302 300 296 292 291 287 283 276 272 272 268 261
190 212 233 216 162 272 219 210 195 218 225 233 270 275 238 259 284 293 299 305 306 307 304 302 303 307 308 306 306 305 305 304 303 301 297 295 295 291 288 281 278 277 272 262
162 187 225 207 187 192 218 216 217 232 244 236 247 263 179 282 293 295 301 306 307 307 307 305 306 307 306 306 306 305 305 304 304 303 299 297 298 296 292 286 284 282 276 265
174 205 229 253 276 176 207 212 207 208 230 243 244 265 278 289 296 301 304 305 306 305 306 306 306 307 308 308 307 306 305 305 306 305 302 301 301 298 293 289 286 285 278 268
194 231 238 257 264 249 241 234 218 220 231 247 260 268 279 290 297 301 301 302 303 304 305 305 306 308 310 311 310 309 307 306 307 304 303 303 305 302 295 290 287 286 278 272
205 236 242 257 252 252 258 250 237 235 240 247 262 271 276 286 293 294 298 302 303 305 306 306 306 307 309 311 312 310 309 308 307 305 303 305 307 306 301 294 292 290 280 274
195 206 227 259 262 270 256 242 230 228 227 234 249 261 280 287 290 296 301 301 300 302 305 305 303 305 308 310 310 309 309 308 307 307 308 310 310 310 307 302 295 290 282 276
196 201 225 259 254 246 254 206 220 232 241 237 249 265 276 282 293 296 291 292 295 300 302 302 302 304 307 309 310 309 308 309 309 310 312 314 312 311 310 308 300 290 285 278
205 200 214 226 249 267 266 223 205 222 254 240 244 260 273 288 296 287 289 291 294 300 301 300 301 303 306 309 312 311 310 311 312 313 313 314 313 312 309 310 305 297 287 282
203 209 219 222 241 253 263 159 171 213 263 241 236 255 272 286 289 301 319 308 301 302 300 301 303 303 304 309 313 311 312 313 315 316 315 312 310 309 306 306 301 298 292 284
181 203 219 229 243 260 260 150 158 225 271 263 237 255 265 265 277 302 308 303 302 303 303 303 303 302 305 311 311 309 312 316 319 317 314 314 314 310 303 303 300 302 303 299
191 196 207 215 231 248 168 161 205 251 317 283 273 269 268 274 286 293 296 299 302 302 304 306 304 302 305 310 308 307 311 315 317 316 315 318 319 315 310 307 302 303 304 301
212 208 206 210 229 272 180 214 245 283 278 282 281 279 278 282 286 291 293 296 298 298 301 302 300 301 304 308 308 306 312 317 317 316 317 319 319 315 316 313 314 314 313 312
222 218 226 242 253 256 248 254 259 260 266 276 277 278 276 279 284 288 290 293 296 297 297 299 299 299 304 311 309 306 311 315 315 314 316 318 320 320 322 319 311 310 312 316
220 196 224 248 262 271 257 248 255 261 264 270 273 274 275 276 279 284 288 290 293 296 298 299 297 299 303 309 307 309 312 313 312 312 314 316 316 317 320 320 315 311 310 308
218 212 221 245 249 244 263 261 260 261 264 268 272 276 275 270 276 282 284 288 291 294 297 298 298 300 304 307 307 311 313 311 309 310 314 314 314 315 316 317 318 318 309 316